Date String (YYYY-MM-DD hh:mm:ss) UTC,Instrument flags,Ambient pressure (hPa),Sample flow (lpm),Bypass flow (lpm),Sample temperature (°C),Ambient temperature (°C),ASC tube jacket temperature (°C),LED temperature (°C),Box temperature (°C),Sample RH (%),Span deviation,Mass concentration (μg/m³),Mass concentration (μg/m³),Mass concentration (μg/m³)
DateTimeUTC,F1_M11,P_M11,Q1_M11,Q2_M11,T1_M11,T2_M11,T3_M11,T4_M11,T5_M11,U1_M11,ZSPAN_M11,X0_M11,X2_M11,X1_M11
2022-06-16 01:00:00,,0824.3,4.99,0.00,29.3,27.8,00.0,38.1,31.3,07.9,0000.0,0003.35,0002.02,0001.62
2022-06-16 01:01:00,,0824.4,5.01,0.00,29.4,28.0,00.0,38.1,31.3,08.0,0000.0,0003.44,0002.05,0001.63
2022-06-16 01:02:00,,0824.4,5.00,0.00,29.4,28.2,00.0,38.2,31.4,08.1,0000.0,0003.45,0002.05,0001.63
2022-06-16 01:03:00,,0824.5,5.00,0.00,29.4,28.4,00.0,38.2,31.5,08.1,0000.0,0003.32,0002.02,0001.63
2022-06-16 01:04:00,,0824.4,4.99,0.00,29.5,28.5,00.0,38.2,31.5,08.2,0000.0,0003.19,0001.98,0001.61
2022-06-16 01:05:00,,0824.5,5.00,0.00,29.5,28.7,00.0,38.2,31.6,08.1,0000.0,0003.18,0001.99,0001.63
2022-06-16 01:06:00,,0824.4,5.00,0.00,29.5,28.1,00.0,38.2,31.4,08.1,0000.0,0003.43,0002.01,0001.64
2022-06-16 01:07:00,,0824.5,5.01,0.00,29.4,27.4,00.0,38.1,31.2,08.0,0000.0,0003.53,0001.99,0001.64
2022-06-16 01:08:00,,0824.4,5.00,0.00,29.4,27.2,00.0,38.1,31.1,07.9,0000.0,0003.42,0001.96,0001.64
2022-06-16 01:09:00,,0824.4,4.98,0.00,29.3,27.2,00.0,38.1,31.1,07.6,0000.0,0003.29,0001.96,0001.65
2022-06-16 01:10:00,,0824.5,5.01,0.00,29.3,27.4,00.0,38.1,31.1,07.8,0000.0,0003.63,0001.95,0001.65
2022-06-16 01:11:00,,0824.5,5.00,0.00,29.3,27.6,00.0,38.1,31.2,08.0,0000.0,0003.74,0001.96,0001.65
2022-06-16 01:12:00,,0824.4,5.00,0.00,29.3,27.8,00.0,38.1,31.3,08.1,0000.0,0003.81,0001.97,0001.64
2022-06-16 01:13:00,,0824.5,5.01,0.00,29.3,28.0,00.0,38.1,31.3,08.1,0000.0,0003.86,0001.99,0001.65
2022-06-16 01:14:00,,0824.4,5.01,0.00,29.4,28.2,00.0,38.2,31.4,08.0,0000.0,0003.88,0001.96,0001.64
2022-06-16 01:15:00,,0824.4,4.99,0.00,29.4,28.3,00.0,38.2,31.4,08.2,0000.0,0003.89,0001.97,0001.63
2022-06-16 01:16:00,,0824.4,4.99,0.00,29.5,28.5,00.0,38.2,31.5,08.2,0000.0,0003.84,0001.96,0001.62
2022-06-16 01:17:00,,0824.4,5.01,0.00,29.5,28.6,00.0,38.2,31.6,08.3,0000.0,0003.65,0001.94,0001.59
2022-06-16 01:18:00,,0824.4,5.00,0.00,29.5,28.4,00.0,38.2,31.5,08.1,0000.0,0003.43,0001.93,0001.58
2022-06-16 01:19:00,,0824.4,4.99,0.00,29.5,27.5,00.0,38.2,31.2,08.0,0000.0,0003.69,0001.98,0001.57
2022-06-16 01:20:00,,0824.4,5.00,0.00,29.4,27.2,00.0,38.1,31.1,08.1,0000.0,0003.61,0001.98,0001.56
2022-06-16 01:21:00,,0824.4,5.00,0.00,29.3,27.2,00.0,38.1,31.1,08.1,0000.0,0003.34,0002.00,0001.56
2022-06-16 01:22:00,,0824.5,5.01,0.00,29.3,27.3,00.0,38.1,31.1,08.1,0000.0,0003.45,0002.01,0001.55
2022-06-16 01:23:00,,0824.5,5.00,0.00,29.3,27.5,00.0,38.1,31.2,08.3,0000.0,0003.95,0002.00,0001.54
2022-06-16 01:24:00,,0824.6,5.00,0.00,29.3,27.7,00.0,38.1,31.2,08.3,0000.0,0003.88,0001.97,0001.53
2022-06-16 01:25:00,,0824.7,5.00,0.00,29.3,27.9,00.0,38.1,31.3,08.4,0000.0,0003.76,0001.97,0001.52
2022-06-16 01:26:00,,0824.6,5.00,0.00,29.4,28.1,00.0,38.1,31.4,08.8,0000.0,0003.75,0001.97,0001.53
2022-06-16 01:27:00,,0824.7,4.99,0.00,29.4,28.3,00.0,38.2,31.4,09.0,0000.0,0003.79,0001.99,0001.54
2022-06-16 01:28:00,,0824.7,5.00,0.00,29.5,28.4,00.0,38.2,31.5,09.1,0000.0,0003.88,0002.01,0001.55
2022-06-16 01:29:00,,0824.7,4.99,0.00,29.5,28.6,00.0,38.2,31.5,09.2,0000.0,0003.93,0002.03,0001.57
2022-06-16 01:30:00,,0824.7,5.01,0.00,29.5,28.7,00.0,38.2,31.6,09.1,0000.0,0003.81,0002.01,0001.57
2022-06-16 01:31:00,,0824.7,5.00,0.00,29.5,28.2,00.0,38.2,31.4,09.1,0000.0,0003.86,0002.03,0001.57
2022-06-16 01:32:00,,0824.7,5.00,0.00,29.5,27.4,00.0,38.2,31.2,09.1,0000.0,0003.81,0002.01,0001.56
2022-06-16 01:33:00,,0824.7,5.00,0.00,29.4,27.2,00.0,38.1,31.1,09.0,0000.0,0003.62,0001.98,0001.58
2022-06-16 01:34:00,,0824.7,5.01,0.00,29.3,27.2,00.0,38.1,31.1,08.9,0000.0,0002.87,0001.96,0001.60
2022-06-16 01:35:00,,0824.8,5.01,0.00,29.3,27.3,00.0,38.1,31.1,08.9,0000.0,0002.97,0001.99,0001.60
2022-06-16 01:36:00,,0824.8,4.99,0.00,29.3,27.5,00.0,38.1,31.2,08.8,0000.0,0002.92,0001.97,0001.60
2022-06-16 01:37:00,,0824.8,5.00,0.00,29.3,27.7,00.0,38.1,31.3,08.8,0000.0,0002.98,0001.99,0001.61
2022-06-16 01:38:00,,0824.9,4.99,0.00,29.3,27.9,00.0,38.1,31.3,08.8,0000.0,0003.09,0002.01,0001.61
2022-06-16 01:39:00,,0824.9,5.00,0.00,29.4,28.1,00.0,38.2,31.4,08.7,0000.0,0003.16,0002.00,0001.60
2022-06-16 01:40:00,,0824.9,5.01,0.00,29.4,28.3,00.0,38.2,31.4,08.6,0000.0,0003.23,0002.05,0001.60
2022-06-16 01:41:00,,0824.9,5.00,0.00,29.5,28.5,00.0,38.2,31.5,08.5,0000.0,0003.18,0002.05,0001.60
2022-06-16 01:42:00,,0824.9,4.99,0.00,29.5,28.6,00.0,38.2,31.5,08.5,0000.0,0003.10,0002.03,0001.58
2022-06-16 01:43:00,,0825.0,5.00,0.00,29.6,28.7,00.0,38.2,31.6,08.4,0000.0,0003.10,0002.03,0001.58
2022-06-16 01:44:00,,0825.1,5.00,0.00,29.5,28.0,00.0,38.2,31.4,08.3,0000.0,0003.14,0002.04,0001.58
2022-06-16 01:45:00,,0825.1,5.01,0.00,29.4,27.2,00.0,38.2,31.1,08.4,0000.0,0003.16,0002.04,0001.57
2022-06-16 01:46:00,,0825.1,4.99,0.00,29.4,27.0,00.0,38.1,31.1,08.4,0000.0,0003.07,0002.01,0001.57
2022-06-16 01:47:00,,0825.1,5.00,0.00,29.3,27.1,00.0,38.1,31.1,08.4,0000.0,0003.11,0002.03,0001.58
2022-06-16 01:48:00,,0825.1,5.02,0.00,29.3,27.3,00.0,38.1,31.1,08.4,0000.0,0003.12,0002.03,0001.57
2022-06-16 01:49:00,,0825.2,5.01,0.00,29.3,27.5,00.0,38.1,31.2,08.4,0000.0,0003.02,0002.02,0001.57
2022-06-16 01:50:00,,0825.2,4.99,0.00,29.3,27.7,00.0,38.1,31.2,08.5,0000.0,0002.83,0001.98,0001.58
2022-06-16 01:51:00,,0825.2,4.99,0.00,29.3,27.9,00.0,38.1,31.3,08.5,0000.0,0002.76,0001.97,0001.58
2022-06-16 01:52:00,,0825.2,5.00,0.00,29.3,28.1,00.0,38.2,31.3,08.5,0000.0,0002.77,0001.98,0001.58
2022-06-16 01:53:00,,0825.2,5.00,0.00,29.4,28.3,00.0,38.2,31.4,08.5,0000.0,0002.80,0001.98,0001.61
2022-06-16 01:54:00,,0825.2,5.01,0.00,29.4,28.4,00.0,38.2,31.4,08.5,0000.0,0002.86,0002.01,0001.61
2022-06-16 01:55:00,,0825.3,5.00,0.00,29.5,28.6,00.0,38.2,31.5,08.5,0000.0,0002.88,0002.02,0001.61
2022-06-16 01:56:00,,0825.3,5.00,0.00,29.5,28.7,00.0,38.2,31.6,08.5,0000.0,0002.90,0002.03,0001.61
2022-06-16 01:57:00,,0825.3,4.99,0.00,29.5,28.3,00.0,38.2,31.5,08.5,0000.0,0002.92,0002.03,0001.61
2022-06-16 01:58:00,,0825.3,5.02,0.00,29.5,27.5,00.0,38.2,31.2,08.5,0000.0,0003.11,0002.05,0001.61
2022-06-16 01:59:00,,0825.3,4.98,0.00,29.4,27.1,00.0,38.1,31.1,08.5,0000.0,0003.10,0002.04,0001.61
